QPF
0.04 0.07 0.06 0.04 0.04 0.05 0.06 0.06 0.05 0.06 0.06 0.06 0.06 0.06 0.06 0.07 0.08 0.07 0.06 0.06 0.06 0.05 0.07 0.07 0.06 0.04 0.03 0.03 0.03 0.03 0.03 0.04 0.03 0.03 0.04 0.04 0.05 0.05 0.04 0.03 0.03 0.04 0.05
0.05 0.06 0.08 0.07 0.05 0.05 0.07 0.08 0.07 0.07 0.08 0.06 0.06 0.06 0.06 0.06 0.08 0.08 0.07 0.07 0.07 0.07 0.06 0.07 0.06 0.06 0.05 0.05 0.04 0.04 0.04 0.04 0.04 0.03 0.03 0.02 0.02 0.03 0.03 0.03 0.02 0.03 0.03
0.04 0.05 0.06 0.06 0.05 0.05 0.06 0.07 0.09 0.11 0.10 0.06 0.05 0.05 0.05 0.05 0.08 0.08 0.08 0.08 0.08 0.08 0.08 0.08 0.08 0.08 0.09 0.09 0.08 0.05 0.04 0.05 0.04 0.04 0.03 0.02 0.01 0.02 0.02 0.02 0.02 0.03 0.03
0.03 0.03 0.03 0.04 0.06 0.08 0.08 0.06 0.07 0.07 0.06 0.04 0.03 0.04 0.06 0.07 0.08 0.07 0.07 0.07 0.08 0.09 0.11 0.11 0.10 0.08 0.07 0.07 0.07 0.05 0.05 0.05 0.05 0.05 0.03 0.02 0.01 0.01 0.01 0.01 0.01 0.01 0.02
0.03 0.03 0.03 0.04 0.05 0.06 0.07 0.06 0.06 0.06 0.06 0.06 0.04 0.04 0.05 0.05 0.04 0.03 0.03 0.03 0.04 0.06 0.06 0.05 0.05 0.05 0.06 0.07 0.06 0.05 0.05 0.04 0.03 0.03 0.03 0.01 0.01 0.01 0.01 0.01 0.01 0.01 0.02
0.03 0.02 0.02 0.02 0.03 0.04 0.04 0.05 0.06 0.06 0.08 0.09 0.08 0.06 0.05 0.03 0.03 0.02 0.02 0.02 0.02 0.02 0.02 0.02 0.03 0.03 0.03 0.04 0.05 0.04 0.04 0.03 0.02 0.02 0.02 0.02 0.01 0.02 0.02 0.02 0.01 0.01 0.02
0.03 0.03 0.03 0.03 0.02 0.03 0.04 0.04 0.04 0.03 0.04 0.04 0.05 0.05 0.04 0.04 0.03 0.02 0.02 0.02 0.01 0.01 0.01 0.02 0.02 0.02 0.02 0.02 0.03 0.04 0.05 0.05 0.04 0.03 0.03 0.02 0.03 0.03 0.03 0.03 0.03 0.02 0.02
0.04 0.04 0.04 0.04 0.04 0.04 0.05 0.05 0.04 0.03 0.03 0.02 0.02 0.02 0.02 0.03 0.03 0.03 0.03 0.03 0.02 0.02 0.02 0.02 0.01 0.01 0.02 0.02 0.03 0.04 0.03 0.04 0.04 0.04 0.03 0.05 0.06 0.06 0.06 0.05 0.05 0.04 0.04
0.06 0.06 0.06 0.07 0.07 0.07 0.08 0.07 0.06 0.04 0.03 0.02 0.02 0.02 0.03 0.04 0.04 0.03 0.03 0.02 0.01 0.01 0.02 0.02 0.02 0.02 0.02 0.03 0.04 0.05 0.04 0.04 0.04 0.05 0.05 0.06 0.07 0.07 0.06 0.05 0.05 0.05 0.05
0.09 0.10 0.10 0.07 0.06 0.07 0.09 0.08 0.08 0.04 0.03 0.02 0.02 0.04 0.03 0.03 0.04 0.03 0.03 0.02 0.02 0.01 0.01 0.02 0.03 0.03 0.03 0.05 0.05 0.06 0.05 0.05 0.05 0.05 0.05 0.06 0.06 0.06 0.05 0.04 0.05 0.05 0.05
0.08 0.11 0.11 0.10 0.07 0.06 0.07 0.05 0.05 0.05 0.04 0.04 0.04 0.05 0.05 0.04 0.03 0.02 0.02 0.02 0.02 0.01 0.01 0.01 0.02 0.03 0.03 0.04 0.04 0.05 0.05 0.05 0.06 0.07 0.08 0.07 0.06 0.06 0.05 0.05 0.06 0.06 0.06
0.05 0.08 0.10 0.12 0.13 0.09 0.08 0.05 0.04 0.05 0.04 0.04 0.03 0.03 0.04 0.04 0.03 0.02 0.02 0.02 0.02 0.02 0.01 0.01 0.02 0.02 0.03 0.03 0.03 0.03 0.04 0.06 0.07 0.08 0.08 0.08 0.07 0.06 0.07 0.07 0.07 0.08 0.07
0.04 0.07 0.07 0.07 0.10 0.11 0.09 0.08 0.07 0.06 0.04 0.03 0.02 0.03 0.03 0.02 0.02 0.02 0.03 0.02 0.02 0.02 0.02 0.02 0.02 0.02 0.02 0.02 0.02 0.03 0.03 0.04 0.05 0.05 0.05 0.06 0.07 0.08 0.10 0.10 0.09 0.08 0.08
0.04 0.07 0.07 0.07 0.08 0.10 0.11 0.10 0.10 0.07 0.02 0.01 0.01 0.02 0.02 0.01 0.01 0.02 0.02 0.02 0.02 0.02 0.02 0.02 0.03 0.03 0.03 0.03 0.03 0.03 0.04 0.05 0.05 0.05 0.04 0.05 0.07 0.10 0.12 0.13 0.12 0.11 0.10
0.03 0.04 0.05 0.05 0.05 0.06 0.06 0.06 0.06 0.04 0.02 0.02 0.01 0.02 0.02 0.02 0.02 0.02 0.02 0.02 0.02 0.02 0.03 0.03 0.02 0.01 0.02 0.03 0.03 0.03 0.05 0.08 0.09 0.07 0.05 0.05 0.05 0.07 0.10 0.13 0.14 0.13 0.11
0.03 0.03 0.02 0.02 0.03 0.02 0.02 0.02 0.03 0.04 0.04 0.03 0.03 0.02 0.02 0.02 0.02 0.02 0.02 0.03 0.03 0.03 0.02 0.02 0.02 0.03 0.03 0.04 0.03 0.02 0.02 0.04 0.07 0.10 0.09 0.07 0.06 0.06 0.07 0.08 0.11 0.12 0.11
0.04 0.03 0.03 0.02 0.03 0.03 0.02 0.03 0.04 0.03 0.02 0.02 0.04 0.03 0.03 0.03 0.03 0.03 0.03 0.03 0.03 0.04 0.03 0.03 0.03 0.03 0.04 0.04 0.04 0.03 0.03 0.03 0.05 0.07 0.09 0.09 0.08 0.08 0.07 0.07 0.08 0.09 0.09
0.05 0.04 0.03 0.02 0.03 0.03 0.04 0.04 0.04 0.03 0.03 0.04 0.04 0.05 0.04 0.03 0.03 0.03 0.03 0.03 0.03 0.03 0.04 0.04 0.04 0.04 0.04 0.03 0.03 0.02 0.02 0.03 0.04 0.05 0.07 0.09 0.08 0.08 0.08 0.08 0.08 0.08 0.09
0.04 0.04 0.03 0.02 0.03 0.03 0.04 0.05 0.04 0.03 0.02 0.03 0.03 0.04 0.04 0.03 0.04 0.04 0.03 0.01 0.01 0.02 0.03 0.03 0.02 0.01 0.01 0.01 0.01 0.02 0.02 0.01 0.02 0.03 0.04 0.06 0.06 0.06 0.06 0.07 0.08 0.09 0.10
0.05 0.04 0.03 0.03 0.03 0.03 0.04 0.04 0.04 0.03 0.03 0.02 0.02 0.02 0.02 0.03 0.03 0.03 0.04 0.02 0.01 0.01 0.01 0.01 0.01 0.00 0.00 0.01 0.01 0.02 0.02 0.02 0.01 0.02 0.02 0.03 0.05 0.05 0.04 0.04 0.05 0.07 0.08
0.06 0.05 0.04 0.04 0.04 0.04 0.04 0.04 0.03 0.03 0.03 0.03 0.02 0.02 0.02 0.02 0.03 0.02 0.02 0.02 0.01 0.01 0.01 0.00 0.00 0.01 0.01 0.01 0.01 0.02 0.02 0.01 0.01 0.01 0.02 0.02 0.04 0.05 0.04 0.04 0.04 0.06 0.07
0.06 0.06 0.06 0.05 0.05 0.05 0.04 0.04 0.03 0.03 0.03 0.04 0.03 0.02 0.02 0.01 0.01 0.01 0.01 0.01 0.00 0.00 0.00 0.01 0.01 0.01 0.01 0.01 0.02 0.02 0.02 0.02 0.01 0.01 0.01 0.01 0.02 0.03 0.04 0.03 0.03 0.03 0.04
0.09 0.08 0.07 0.06 0.05 0.06 0.05 0.04 0.03 0.03 0.04 0.04 0.04 0.02 0.01 0.01 0.01 0.01 0.01 0.02 0.01 0.01 0.01 0.01 0.01 0.01 0.01 0.01 0.01 0.02 0.03 0.03 0.02 0.01 0.01 0.01 0.02 0.03 0.03 0.03 0.03 0.02 0.03
0.07 0.09 0.08 0.07 0.05 0.04 0.04 0.03 0.02 0.02 0.03 0.02 0.02 0.02 0.02 0.02 0.02 0.02 0.02 0.03 0.02 0.01 0.01 0.01 0.01 0.01 0.01 0.01 0.01 0.02 0.03 0.04 0.03 0.02 0.01 0.01 0.01 0.02 0.03 0.03 0.03 0.02 0.02
0.05 0.07 0.07 0.06 0.05 0.04 0.03 0.03 0.03 0.02 0.02 0.02 0.01 0.01 0.01 0.01 0.01 0.01 0.01 0.02 0.01 0.01 0.01 0.01 0.01 0.01 0.01 0.02 0.02 0.02 0.04 0.06 0.05 0.03 0.02 0.01 0.02 0.02 0.03 0.04 0.05 0.03 0.03
0.04 0.05 0.04 0.04 0.04 0.03 0.03 0.03 0.03 0.03 0.03 0.03 0.03 0.03 0.03 0.02 0.02 0.01 0.01 0.01 0.01 0.01 0.02 0.01 0.01 0.01 0.01 0.01 0.02 0.02 0.05 0.07 0.06 0.04 0.02 0.01 0.02 0.03 0.03 0.03 0.05 0.05 0.04
MSLP
1006.42 1006.84 1007.32 1007.80 1008.27 1008.68 1009.03 1009.32 1009.57 1009.80 1010.03 1010.29 1010.56 1010.84 1011.11 1011.36 1011.56 1011.72 1011.82 1011.89 1011.96 1012.03 1012.14 1012.29 1012.48 1012.71 1012.95 1013.17 1013.35 1013.46 1013.50 1013.44 1013.31 1013.11 1012.85 1012.56 1012.26 1011.97 1011.69 1011.45 1011.24 1011.07 1010.96
1006.10 1006.41 1006.78 1007.18 1007.57 1007.94 1008.26 1008.55 1008.81 1009.07 1009.34 1009.63 1009.94 1010.25 1010.56 1010.85 1011.08 1011.27 1011.40 1011.49 1011.55 1011.62 1011.70 1011.82 1011.98 1012.17 1012.39 1012.59 1012.78 1012.91 1012.98 1012.97 1012.89 1012.72 1012.50 1012.21 1011.90 1011.56 1011.22 1010.89 1010.59 1010.32 1010.10
1005.97 1006.19 1006.45 1006.75 1007.06 1007.35 1007.62 1007.89 1008.14 1008.40 1008.69 1009.00 1009.34 1009.69 1010.03 1010.34 1010.61 1010.82 1010.98 1011.08 1011.15 1011.21 1011.28 1011.37 1011.49 1011.65 1011.82 1012.00 1012.17 1012.31 1012.39 1012.41 1012.35 1012.22 1012.02 1011.75 1011.42 1011.06 1010.68 1010.28 1009.90 1009.54 1009.23
1005.98 1006.12 1006.29 1006.49 1006.71 1006.92 1007.13 1007.34 1007.57 1007.83 1008.11 1008.44 1008.79 1009.16 1009.52 1009.86 1010.15 1010.38 1010.55 1010.67 1010.75 1010.80 1010.85 1010.92 1011.00 1011.11 1011.25 1011.38 1011.52 1011.63 1011.70 1011.71 1011.67 1011.56 1011.37 1011.12 1010.80 1010.43 1010.02 1009.59 1009.16 1008.73 1008.34
1006.06 1006.14 1006.25 1006.37 1006.49 1006.63 1006.77 1006.93 1007.12 1007.35 1007.63 1007.95 1008.31 1008.68 1009.05 1009.39 1009.68 1009.93 1010.10 1010.23 1010.31 1010.36 1010.40 1010.44 1010.49 1010.55 1010.63 1010.71 1010.79 1010.86 1010.89 1010.89 1010.83 1010.72 1010.54 1010.30 1009.99 1009.63 1009.23 1008.79 1008.33 1007.87 1007.42
1006.15 1006.21 1006.27 1006.33 1006.39 1006.45 1006.53 1006.64 1006.78 1006.98 1007.23 1007.54 1007.87 1008.23 1008.58 1008.91 1009.20 1009.43 1009.61 1009.73 1009.80 1009.85 1009.88 1009.89 1009.91 1009.94 1009.96 1009.99 1010.01 1010.01 1009.99 1009.94 1009.86 1009.73 1009.55 1009.31 1009.02 1008.68 1008.29 1007.86 1007.41 1006.93 1006.45
1006.23 1006.29 1006.33 1006.35 1006.36 1006.37 1006.39 1006.45 1006.55 1006.71 1006.92 1007.19 1007.49 1007.81 1008.13 1008.42 1008.67 1008.88 1009.03 1009.14 1009.21 1009.25 1009.27 1009.28 1009.27 1009.26 1009.24 1009.22 1009.17 1009.11 1009.03 1008.93 1008.80 1008.64 1008.45 1008.21 1007.93 1007.61 1007.24 1006.82 1006.37 1005.89 1005.39
1006.29 1006.37 1006.41 1006.41 1006.39 1006.36 1006.34 1006.36 1006.42 1006.53 1006.70 1006.92 1007.16 1007.42 1007.68 1007.91 1008.11 1008.27 1008.39 1008.47 1008.53 1008.56 1008.58 1008.58 1008.57 1008.54 1008.49 1008.42 1008.33 1008.21 1008.07 1007.91 1007.74 1007.54 1007.32 1007.06 1006.78 1006.46 1006.09 1005.67 1005.22 1004.72 1004.20
1006.34 1006.44 1006.50 1006.50 1006.47 1006.42 1006.38 1006.36 1006.38 1006.45 1006.57 1006.72 1006.90 1007.08 1007.25 1007.41 1007.53 1007.63 1007.70 1007.75 1007.79 1007.82 1007.84 1007.84 1007.83 1007.80 1007.73 1007.64 1007.51 1007.35 1007.16 1006.95 1006.72 1006.48 1006.22 1005.93 1005.62 1005.27 1004.87 1004.43 1003.94 1003.41 1002.85
1006.39 1006.53 1006.60 1006.61 1006.59 1006.53 1006.48 1006.44 1006.44 1006.46 1006.52 1006.61 1006.71 1006.80 1006.88 1006.94 1006.99 1007.01 1007.03 1007.04 1007.06 1007.08 1007.10 1007.11 1007.11 1007.08 1007.01 1006.90 1006.75 1006.56 1006.34 1006.08 1005.81 1005.52 1005.20 1004.87 1004.50 1004.08 1003.63 1003.12 1002.56 1001.95 1001.32
1006.45 1006.60 1006.69 1006.73 1006.72 1006.67 1006.63 1006.58 1006.56 1006.55 1006.56 1006.58 1006.60 1006.61 1006.59 1006.56 1006.52 1006.48 1006.43 1006.41 1006.40 1006.41 1006.43 1006.44 1006.45 1006.42 1006.36 1006.24 1006.08 1005.87 1005.61 1005.32 1005.00 1004.66 1004.29 1003.88 1003.43 1002.93 1002.38 1001.77 1001.10 1000.39 999.66
1006.49 1006.66 1006.76 1006.82 1006.83 1006.81 1006.78 1006.74 1006.71 1006.68 1006.66 1006.62 1006.57 1006.50 1006.40 1006.29 1006.17 1006.06 1005.96 1005.90 1005.86 1005.85 1005.87 1005.88 1005.88 1005.86 1005.79 1005.66 1005.48 1005.25 1004.97 1004.65 1004.29 1003.89 1003.45 1002.97 1002.43 1001.83 1001.17 1000.43 999.64 998.81 997.96
1006.51 1006.66 1006.77 1006.84 1006.88 1006.89 1006.88 1006.86 1006.84 1006.81 1006.76 1006.68 1006.58 1006.45 1006.29 1006.11 1005.94 1005.78 1005.64 1005.54 1005.48 1005.45 1005.45 1005.45 1005.43 1005.39 1005.30 1005.15 1004.95 1004.69 1004.38 1004.02 1003.62 1003.18 1002.69 1002.13 1001.51 1000.81 1000.04 999.19 998.27 997.32 996.36
1006.45 1006.58 1006.69 1006.77 1006.82 1006.86 1006.88 1006.89 1006.88 1006.85 1006.80 1006.70 1006.57 1006.40 1006.21 1006.00 1005.79 1005.60 1005.44 1005.32 1005.24 1005.19 1005.16 1005.13 1005.09 1005.00 1004.87 1004.69 1004.44 1004.15 1003.81 1003.42 1002.98 1002.50 1001.97 1001.36 1000.68 999.91 999.05 998.11 997.11 996.07 995.04
1006.32 1006.41 1006.49 1006.56 1006.63 1006.69 1006.74 1006.77 1006.78 1006.76 1006.71 1006.61 1006.47 1006.30 1006.09 1005.88 1005.67 1005.48 1005.31 1005.19 1005.10 1005.03 1004.97 1004.90 1004.80 1004.67 1004.48 1004.24 1003.94 1003.60 1003.22 1002.80 1002.34 1001.85 1001.29 1000.67 999.97 999.17 998.28 997.31 996.27 995.20 994.15
1006.10 1006.13 1006.18 1006.23 1006.29 1006.36 1006.42 1006.47 1006.50 1006.49 1006.45 1006.36 1006.22 1006.06 1005.87 1005.67 1005.48 1005.31 1005.17 1005.06 1004.97 1004.89 1004.80 1004.69 1004.54 1004.34 1004.08 1003.78 1003.42 1003.03 1002.62 1002.17 1001.71 1001.22 1000.68 1000.08 999.41 998.64 997.79 996.85 995.86 994.83 993.82
1005.82 1005.78 1005.77 1005.79 1005.83 1005.89 1005.95 1006.00 1006.03 1006.03 1005.99 1005.91 1005.79 1005.65 1005.49 1005.33 1005.18 1005.04 1004.94 1004.85 1004.77 1004.69 1004.58 1004.44 1004.24 1003.98 1003.66 1003.29 1002.89 1002.45 1002.01 1001.56 1001.11 1000.64 1000.15 999.62 999.03 998.35 997.60 996.77 995.88 994.97 994.08
1005.47 1005.37 1005.30 1005.28 1005.29 1005.32 1005.36 1005.40 1005.41 1005.40 1005.36 1005.29 1005.18 1005.06 1004.93 1004.81 1004.70 1004.62 1004.56 1004.51 1004.46 1004.39 1004.27 1004.11 1003.87 1003.57 1003.21 1002.79 1002.35 1001.89 1001.43 1000.99 1000.57 1000.16 999.74 999.31 998.83 998.30 997.70 997.03 996.31 995.57 994.85
1005.09 1004.92 1004.79 1004.72 1004.69 1004.68 1004.69 1004.70 1004.69 1004.66 1004.60 1004.52 1004.42 1004.31 1004.21 1004.12 1004.06 1004.02 1004.01 1004.01 1003.99 1003.95 1003.85 1003.68 1003.44 1003.12 1002.73 1002.29 1001.83 1001.36 1000.91 1000.50 1000.12 999.78 999.46 999.14 998.81 998.44 998.02 997.55 997.03 996.50 995.98
1004.66 1004.43 1004.26 1004.14 1004.06 1004.01 1003.98 1003.95 1003.91 1003.84 1003.76 1003.66 1003.55 1003.45 1003.36 1003.30 1003.28 1003.29 1003.32 1003.36 1003.39 1003.38 1003.31 1003.17 1002.94 1002.63 1002.25 1001.82 1001.36 1000.91 1000.48 1000.11 999.78 999.52 999.29 999.10 998.91 998.70 998.47 998.20 997.90 997.58 997.27
1004.18 1003.91 1003.69 1003.53 1003.41 1003.32 1003.25 1003.17 1003.09 1002.99 1002.88 1002.76 1002.64 1002.53 1002.45 1002.41 1002.41 1002.46 1002.53 1002.61 1002.69 1002.72 1002.70 1002.59 1002.40 1002.13 1001.78 1001.38 1000.96 1000.54 1000.16 999.83 999.56 999.36 999.23 999.14 999.07 999.02 998.95 998.86 998.75 998.63 998.50
1003.61 1003.31 1003.06 1002.86 1002.70 1002.58 1002.47 1002.36 1002.25 1002.12 1001.98 1001.84 1001.70 1001.59 1001.52 1001.49 1001.51 1001.58 1001.69 1001.81 1001.93 1002.01 1002.04 1002.00 1001.86 1001.65 1001.36 1001.01 1000.65 1000.28 999.94 999.66 999.44 999.30 999.23 999.22 999.25 999.30 999.37 999.42 999.46 999.49 999.52
1002.93 1002.59 1002.31 1002.08 1001.90 1001.75 1001.61 1001.48 1001.35 1001.21 1001.06 1000.90 1000.76 1000.65 1000.58 1000.57 1000.61 1000.70 1000.84 1001.00 1001.16 1001.30 1001.39 1001.41 1001.35 1001.21 1000.99 1000.72 1000.41 1000.11 999.82 999.58 999.41 999.30 999.27 999.31 999.40 999.52 999.67 999.82 999.96 1000.10 1000.23
1002.10 1001.74 1001.42 1001.17 1000.96 1000.79 1000.64 1000.50 1000.36 1000.22 1000.07 999.93 999.80 999.71 999.65 999.66 999.72 999.84 1000.01 1000.21 1000.42 1000.61 1000.77 1000.86 1000.88 1000.82 1000.68 1000.49 1000.26 1000.01 999.78 999.59 999.44 999.36 999.36 999.41 999.53 999.68 999.87 1000.07 1000.27 1000.47 1000.67
1001.16 1000.75 1000.40 1000.11 999.88 999.69 999.53 999.39 999.26 999.13 999.01 998.89 998.80 998.73 998.71 998.75 998.84 999.00 999.21 999.45 999.71 999.96 1000.18 1000.34 1000.44 1000.47 1000.42 1000.32 1000.16 999.99 999.81 999.65 999.54 999.48 999.48 999.54 999.66 999.82 1000.02 1000.24 1000.47 1000.69 1000.92
1000.13 999.66 999.27 998.94 998.67 998.46 998.30 998.17 998.05 997.95 997.86 997.79 997.74 997.72 997.75 997.83 997.97 998.17 998.42 998.71 999.03 999.33 999.62 999.86 1000.04 1000.15 1000.20 1000.18 1000.10 1000.00 999.88 999.77 999.69 999.65 999.66 999.72 999.84 1000.00 1000.19 1000.41 1000.64 1000.88 1001.11
Thickness
5778 5775 5772 5769 5766 5763 5760 5757 5756 5754 5753 5752 5751 5748 5746 5745 5744 5742 5741 5739 5737 5736 5735 5733 5731 5730 5727 5726 5724 5721 5719 5716 5712 5711 5710 5710 5709 5708 5707 5706 5706 5705 5704
5775 5772 5768 5766 5763 5760 5757 5755 5754 5752 5751 5750 5748 5745 5743 5742 5741 5739 5737 5736 5734 5732 5730 5729 5728 5728 5725 5723 5720 5718 5716 5714 5710 5707 5706 5705 5704 5704 5703 5702 5702 5701 5699
5772 5768 5765 5762 5760 5757 5755 5753 5751 5749 5748 5746 5744 5741 5740 5738 5737 5735 5733 5731 5730 5728 5727 5725 5724 5723 5721 5719 5717 5715 5713 5712 5708 5704 5702 5700 5699 5698 5697 5697 5696 5695 5694
5768 5765 5761 5759 5757 5755 5753 5751 5749 5746 5744 5742 5740 5738 5736 5735 5733 5732 5730 5728 5726 5725 5724 5722 5721 5720 5717 5715 5714 5712 5710 5706 5704 5701 5698 5695 5693 5692 5691 5690 5690 5689 5688
5764 5761 5759 5758 5755 5753 5750 5748 5746 5743 5741 5738 5736 5734 5733 5731 5730 5728 5727 5725 5723 5721 5720 5719 5718 5717 5715 5713 5712 5709 5706 5702 5699 5697 5694 5691 5689 5687 5687 5686 5684 5683 5682
5760 5757 5756 5754 5751 5749 5746 5744 5741 5738 5736 5734 5732 5730 5729 5728 5726 5725 5723 5721 5719 5716 5715 5714 5713 5712 5711 5710 5708 5706 5703 5700 5697 5694 5691 5688 5686 5685 5683 5681 5678 5676 5676
5756 5754 5752 5750 5747 5745 5744 5739 5736 5734 5731 5729 5728 5726 5724 5723 5722 5720 5719 5716 5714 5712 5710 5709 5709 5709 5706 5704 5703 5701 5699 5698 5695 5692 5689 5686 5684 5683 5679 5676 5674 5672 5672
5750 5748 5747 5745 5743 5740 5737 5734 5731 5729 5727 5725 5723 5722 5720 5719 5718 5716 5713 5711 5708 5707 5706 5704 5702 5701 5701 5699 5697 5695 5693 5692 5690 5688 5686 5685 5683 5681 5677 5674 5671 5667 5665
5744 5743 5742 5741 5738 5735 5731 5729 5727 5725 5723 5721 5719 5717 5715 5715 5714 5711 5708 5705 5703 5701 5700 5699 5697 5696 5695 5693 5690 5688 5686 5685 5684 5682 5681 5679 5678 5676 5672 5668 5664 5662 5660
5739 5739 5738 5736 5733 5731 5728 5725 5723 5720 5719 5716 5714 5713 5711 5709 5708 5706 5703 5700 5697 5696 5694 5693 5692 5690 5689 5687 5684 5682 5680 5679 5678 5675 5674 5672 5671 5669 5667 5664 5662 5658 5655
5735 5734 5732 5731 5729 5726 5723 5721 5718 5716 5713 5711 5709 5707 5705 5704 5702 5700 5697 5694 5692 5690 5688 5687 5686 5685 5683 5681 5679 5677 5675 5674 5671 5668 5667 5666 5665 5663 5661 5659 5657 5654 5651
5730 5728 5726 5725 5724 5722 5718 5715 5713 5710 5706 5704 5702 5700 5699 5697 5696 5694 5692 5689 5688 5685 5683 5682 5681 5679 5677 5675 5673 5672 5669 5667 5665 5663 5661 5660 5659 5657 5656 5654 5651 5649 5647
5723 5720 5718 5717 5717 5714 5711 5709 5706 5704 5701 5698 5695 5693 5693 5691 5690 5687 5685 5683 5681 5679 5677 5676 5674 5672 5671 5669 5668 5666 5664 5662 5660 5657 5656 5655 5653 5651 5649 5647 5645 5643 5640
5716 5714 5713 5711 5709 5708 5706 5704 5701 5699 5696 5693 5690 5687 5686 5684 5682 5681 5679 5676 5674 5672 5670 5669 5667 5665 5664 5662 5660 5659 5658 5656 5654 5652 5651 5649 5646 5644 5642 5640 5638 5636 5633
5710 5708 5706 5705 5703 5700 5699 5697 5696 5694 5691 5688 5685 5683 5680 5678 5677 5674 5672 5670 5668 5665 5662 5661 5659 5657 5656 5654 5653 5651 5650 5649 5648 5646 5644 5642 5640 5638 5635 5633 5630 5628 5625
5702 5701 5700 5697 5695 5693 5691 5690 5688 5686 5684 5682 5679 5677 5675 5673 5671 5668 5666 5663 5660 5658 5655 5653 5651 5649 5648 5647 5645 5644 5643 5641 5640 5639 5637 5635 5633 5631 5629 5625 5623 5621 5618
5696 5695 5693 5691 5688 5686 5684 5683 5681 5679 5677 5675 5673 5670 5668 5666 5664 5662 5659 5656 5653 5650 5648 5646 5644 5642 5640 5639 5638 5637 5635 5634 5632 5631 5629 5627 5626 5624 5621 5618 5615 5613 5610
5689 5688 5687 5684 5682 5680 5678 5676 5674 5672 5670 5668 5666 5663 5662 5659 5657 5654 5651 5648 5645 5643 5641 5639 5638 5636 5634 5632 5631 5630 5628 5626 5624 5622 5621 5619 5618 5616 5614 5611 5608 5605 5603
5681 5681 5680 5678 5676 5673 5671 5669 5667 5665 5663 5660 5658 5656 5654 5652 5649 5646 5644 5642 5640 5637 5634 5632 5631 5630 5628 5626 5624 5622 5620 5619 5616 5614 5612 5610 5609 5607 5605 5603 5600 5597 5595
5673 5672 5672 5670 5668 5666 5664 5662 5659 5657 5655 5653 5651 5649 5647 5644 5642 5639 5637 5635 5633 5630 5628 5626 5625 5623 5621 5619 5617 5615 5613 5611 5609 5607 5605 5602 5600 5599 5597 5595 5592 5590 5588
5665 5664 5662 5662 5660 5658 5656 5654 5652 5650 5648 5646 5644 5642 5639 5638 5636 5634 5631 5629 5627 5624 5622 5621 5619 5617 5614 5612 5610 5608 5606 5604 5602 5599 5597 5595 5593 5591 5590 5588 5586 5583 5581
5657 5656 5655 5653 5652 5650 5648 5647 5646 5644 5642 5639 5638 5636 5632 5630 5629 5627 5626 5624 5622 5619 5618 5616 5614 5611 5609 5607 5604 5602 5599 5597 5595 5592 5590 5588 5586 5584 5582 5581 5579 5577 5575
5650 5648 5646 5645 5644 5641 5640 5639 5638 5636 5635 5633 5632 5630 5628 5625 5623 5622 5620 5618 5616 5614 5612 5610 5608 5606 5604 5601 5599 5596 5594 5591 5588 5585 5583 5582 5580 5578 5576 5575 5573 5570 5569
5642 5641 5639 5637 5635 5634 5632 5631 5630 5629 5628 5627 5625 5623 5622 5620 5618 5617 5615 5613 5611 5609 5607 5605 5603 5601 5598 5596 5593 5590 5588 5585 5583 5580 5578 5576 5575 5573 5570 5568 5567 5565 5563
5635 5634 5632 5630 5628 5626 5625 5624 5623 5622 5621 5620 5619 5618 5616 5614 5613 5612 5610 5608 5606 5604 5602 5600 5597 5595 5592 5590 5587 5585 5582 5580 5577 5575 5573 5571 5569 5567 5565 5563 5561 5559 5556
5627 5626 5625 5623 5621 5620 5618 5617 5616 5615 5615 5614 5613 5612 5610 5608 5607 5606 5604 5603 5601 5599 5597 5594 5592 5589 5587 5584 5582 5579 5577 5574 5572 5570 5568 5566 5564 5563 5560 5559 5557 5554 5551